Stündliche Wetter Abdurashid

Heute, 28 Juli, Mittwoch

Zeit Temperatur Niederschläge Wind Luftdruck Luftfeuchtigkeit
00:00 +25°C° 0.1 mm 2 m/S 760 mmHg 67%
01:00 +24°C° 0.1 mm 2 m/S 760 mmHg 68%
02:00 +23°C° 0.1 mm 2 m/S 760 mmHg 69%
03:00 +21°C° 0 mm 3 m/S 760 mmHg 72%
04:00 +21°C° 0.1 mm 3 m/S 760 mmHg 75%
05:00 +20°C° 0.1 mm 3 m/S 761 mmHg 77%
06:00 +19°C° 0.1 mm 3 m/S 761 mmHg 80%
07:00 +19°C° 0 mm 3 m/S 761 mmHg 80%
08:00 +19°C° 0 mm 4 m/S 761 mmHg 79%
09:00 +19°C° 0 mm 4 m/S 761 mmHg 79%
10:00 +20°C° 0 mm 4 m/S 761 mmHg 79%
11:00 +20°C° 0 mm 4 m/S 761 mmHg 78%
12:00 +20°C° 0 mm 4 m/S 761 mmHg 77%
13:00 +20°C° 0 mm 4 m/S 761 mmHg 77%
14:00 +20°C° 0 mm 4 m/S 761 mmHg 77%
15:00 +20°C° 0 mm 4 m/S 761 mmHg 77%
16:00 +20°C° 0 mm 3 m/S 761 mmHg 77%
17:00 +20°C° 0 mm 3 m/S 761 mmHg 76%
18:00 +20°C° 0 mm 3 m/S 761 mmHg 76%
19:00 +20°C° 0 mm 3 m/S 761 mmHg 75%
20:00 +20°C° 0 mm 3 m/S 761 mmHg 74%
21:00 +20°C° 0 mm 2 m/S 761 mmHg 74%
22:00 +20°C° 0 mm 2 m/S 761 mmHg 74%
23:00 +20°C° 0 mm 2 m/S 760 mmHg 74%

Morgen, 29 Juli, Donnerstag

Zeit Temperatur Niederschläge Wind Luftdruck Luftfeuchtigkeit
00:00 +20°C° 0 mm 2 m/S 760 mmHg 74%
01:00 +19°C° 0 mm 2 m/S 760 mmHg 76%
02:00 +20°C° 0 mm 1 m/S 759 mmHg 77%
03:00 +20°C° 0 mm 1 m/S 759 mmHg 78%
04:00 +20°C° 0 mm 1 m/S 759 mmHg 76%
05:00 +19°C° 0 mm 0 m/S 759 mmHg 73%
06:00 +19°C° 0 mm 0 m/S 760 mmHg 71%
07:00 +24°C° 0 mm 1 m/S 759 mmHg 61%
08:00 +26°C° 0 mm 2 m/S 759 mmHg 50%
09:00 +29°C° 0 mm 3 m/S 759 mmHg 40%
10:00 +32°C° 0 mm 4 m/S 759 mmHg 34%
11:00 +34°C° 0 mm 5 m/S 758 mmHg 28%
12:00 +36°C° 0 mm 6 m/S 758 mmHg 22%
13:00 +36°C° 0 mm 7 m/S 757 mmHg 21%
14:00 +36°C° 0 mm 7 m/S 757 mmHg 20%
15:00 +36°C° 0 mm 7 m/S 757 mmHg 20%
16:00 +35°C° 0 mm 7 m/S 757 mmHg 22%
17:00 +33°C° 0 mm 7 m/S 757 mmHg 25%
18:00 +32°C° 0 mm 6 m/S 757 mmHg 27%
19:00 +29°C° 0 mm 5 m/S 757 mmHg 38%
20:00 +26°C° 0 mm 4 m/S 757 mmHg 49%
21:00 +24°C° 0 mm 3 m/S 757 mmHg 60%
22:00 +22°C° 0 mm 3 m/S 757 mmHg 62%
23:00 +22°C° 0 mm 3 m/S 757 mmHg 64%

übermorgen, 30 Juli, Freitag

Zeit Temperatur Niederschläge Wind Luftdruck Luftfeuchtigkeit
00:00 +21°C° 0 mm 2 m/S 757 mmHg 66%
01:00 +21°C° 0 mm 2 m/S 757 mmHg 68%
02:00 +21°C° 0 mm 2 m/S 756 mmHg 70%
03:00 +21°C° 0 mm 2 m/S 756 mmHg 72%
04:00 +21°C° 0 mm 2 m/S 757 mmHg 69%
05:00 +23°C° 0 mm 1 m/S 757 mmHg 65%
06:00 +24°C° 0 mm 1 m/S 757 mmHg 62%
07:00 +27°C° 0 mm 2 m/S 757 mmHg 52%
08:00 +29°C° 0 mm 3 m/S 757 mmHg 41%
09:00 +33°C° 0 mm 4 m/S 757 mmHg 30%
10:00 +34°C° 0 mm 5 m/S 756 mmHg 27%
11:00 +36°C° 0 mm 6 m/S 756 mmHg 24%
12:00 +38°C° 0 mm 7 m/S 755 mmHg 20%
13:00 +38°C° 0 mm 7 m/S 755 mmHg 21%
14:00 +38°C° 0 mm 8 m/S 755 mmHg 21%
15:00 +38°C° 0 mm 8 m/S 754 mmHg 22%
16:00 +35°C° 0 mm 8 m/S 754 mmHg 26%
17:00 +34°C° 0 mm 7 m/S 755 mmHg 29%
18:00 +33°C° 0 mm 7 m/S 755 mmHg 33%
19:00 +30°C° 0 mm 6 m/S 755 mmHg 42%
20:00 +27°C° 0 mm 4 m/S 755 mmHg 52%
21:00 +25°C° 0 mm 3 m/S 755 mmHg 62%
22:00 +25°C° 0 mm 3 m/S 755 mmHg 64%
23:00 +24°C° 0 mm 2 m/S 755 mmHg 66%

31 Juli, Samstag

Zeit Temperatur Niederschläge Wind Luftdruck Luftfeuchtigkeit
00:00 +24°C° 0 mm 2 m/S 755 mmHg 68%
01:00 +23°C° 0 mm 2 m/S 754 mmHg 69%
02:00 +23°C° 0 mm 1 m/S 754 mmHg 70%
03:00 +23°C° 0 mm 1 m/S 754 mmHg 70%
04:00 +24°C° 0 mm 1 m/S 754 mmHg 66%
05:00 +24°C° 0 mm 1 m/S 755 mmHg 62%
06:00 +25°C° 0 mm 1 m/S 755 mmHg 58%
07:00 +28°C° 0 mm 1 m/S 755 mmHg 50%
08:00 +30°C° 0 mm 1 m/S 755 mmHg 42%
09:00 +33°C° 0 mm 1 m/S 755 mmHg 34%
10:00 +35°C° 0 mm 2 m/S 755 mmHg 30%
11:00 +37°C° 0 mm 2 m/S 754 mmHg 27%
12:00 +38°C° 0 mm 2 m/S 754 mmHg 24%
13:00 +40°C° 0 mm 4 m/S 753 mmHg 22%
14:00 +40°C° 0 mm 5 m/S 753 mmHg 20%
15:00 +40°C° 0 mm 7 m/S 753 mmHg 19%
16:00 +39°C° 0 mm 6 m/S 753 mmHg 21%
17:00 +36°C° 0 mm 6 m/S 754 mmHg 22%
18:00 +35°C° 0 mm 6 m/S 754 mmHg 24%
19:00 +33°C° 0 mm 5 m/S 754 mmHg 34%
20:00 +29°C° 0 mm 4 m/S 754 mmHg 44%
21:00 +27°C° 0 mm 3 m/S 754 mmHg 54%
22:00 +26°C° 0 mm 3 m/S 754 mmHg 56%
23:00 +26°C° 0 mm 2 m/S 755 mmHg 58%

1 August, Sonntag

Zeit Temperatur Niederschläge Wind Luftdruck Luftfeuchtigkeit
00:00 +25°C° 0 mm 2 m/S 755 mmHg 61%
01:00 +25°C° 0 mm 2 m/S 755 mmHg 61%
02:00 +25°C° 0 mm 2 m/S 755 mmHg 60%
03:00 +25°C° 0 mm 1 m/S 755 mmHg 60%
04:00 +25°C° 0 mm 1 m/S 755 mmHg 57%
05:00 +26°C° 0 mm 1 m/S 755 mmHg 53%
06:00 +27°C° 0 mm 1 m/S 755 mmHg 50%
07:00 +30°C° 0 mm 1 m/S 755 mmHg 42%
08:00 +32°C° 0 mm 1 m/S 755 mmHg 34%
09:00 +35°C° 0 mm 1 m/S 755 mmHg 26%
10:00 +37°C° 0 mm 2 m/S 754 mmHg 22%
11:00 +39°C° 0 mm 3 m/S 754 mmHg 18%
12:00 +42°C° 0 mm 3 m/S 754 mmHg 14%
13:00 +42°C° 0 mm 5 m/S 753 mmHg 14%
14:00 +42°C° 0 mm 6 m/S 753 mmHg 13%
15:00 +43°C° 0 mm 7 m/S 753 mmHg 13%
16:00 +41°C° 0 mm 6 m/S 753 mmHg 15%
17:00 +39°C° 0 mm 5 m/S 753 mmHg 18%
18:00 +36°C° 0 mm 4 m/S 754 mmHg 20%
19:00 +34°C° 0 mm 4 m/S 754 mmHg 29%
20:00 +30°C° 0 mm 3 m/S 754 mmHg 37%
21:00 +27°C° 0 mm 2 m/S 755 mmHg 45%
22:00 +27°C° 0 mm 2 m/S 755 mmHg 50%
23:00 +26°C° 0 mm 2 m/S 754 mmHg 54%

2 August, Montag

Zeit Temperatur Niederschläge Wind Luftdruck Luftfeuchtigkeit
00:00 +26°C° 0 mm 2 m/S 754 mmHg 58%
01:00 +26°C° 0 mm 1 m/S 754 mmHg 57%
02:00 +26°C° 0 mm 1 m/S 754 mmHg 55%
03:00 +26°C° 0 mm 1 m/S 754 mmHg 54%
04:00 +26°C° 0 mm 1 m/S 755 mmHg 52%
05:00 +27°C° 0 mm 1 m/S 755 mmHg 50%
06:00 +28°C° 0 mm 1 m/S 755 mmHg 48%
07:00 +30°C° 0 mm 1 m/S 755 mmHg 41%
08:00 +34°C° 0 mm 2 m/S 755 mmHg 34%
09:00 +36°C° 0 mm 3 m/S 755 mmHg 27%
10:00 +38°C° 0 mm 4 m/S 755 mmHg 24%
11:00 +41°C° 0 mm 5 m/S 754 mmHg 20%
12:00 +44°C° 0 mm 6 m/S 754 mmHg 17%
13:00 +43°C° 0 mm 7 m/S 754 mmHg 16%
14:00 +43°C° 0 mm 8 m/S 753 mmHg 16%
15:00 +43°C° 0 mm 9 m/S 753 mmHg 15%
16:00 +41°C° 0 mm 8 m/S 753 mmHg 18%
17:00 +39°C° 0 mm 7 m/S 754 mmHg 21%
18:00 +38°C° 0 mm 6 m/S 754 mmHg 24%
19:00 +34°C° 0 mm 5 m/S 754 mmHg 32%
20:00 +32°C° 0 mm 4 m/S 754 mmHg 40%
21:00 +28°C° 0 mm 3 m/S 754 mmHg 48%
22:00 +28°C° 0 mm 3 m/S 754 mmHg 50%
23:00 +27°C° 0 mm 3 m/S 754 mmHg 52%
Mehr zeigen

Wir brauchen deine Erlaubnis

Meteoprog und unser Service Anbieter werden persönliche Daten aufbewahren, so wie Cookies, Geräte Bezeichnung oder ähnliche Technologien von deinem Gerät und Prozess, so wie Persönliche Daten Inhalte und Werbungen, genauso wie social Media und den Verkehr zu analysieren.

  • Aufbewahrung und/oder Zugang zu deiner Geräte Informationen.

    Cookies, Geräte Bezeichnung oder andere Informationen, können aufbewahrt oder Zugang zu deinem Gerät erhalten, für den Grund, der oben angegeben wird.

  • Personalisierte Werbung und Inhalte, Messungen, Einblick in das Publikum und Produkt Entwicklung.

    Werbungen und Inhalte können personalisiert werden, basierend auf ein Profil. Mehr Daten können besser personalisierte Werbungen und Inhalte hinzufügen. Werbung und Inhalte können gezeigt und gemessen werden. Einblicke über das Publikum, welche die Werbung gesehen haben und den Inhalt, können abgeleitet werden. So wie Daten können genutzt werden, um es zu verbessern oder die Benutzer Erfahrung zu verbessern das System und die Software.

Wenn du “Ich stimme zu” klickst, erlaubst du uns, die Cookies zu benutzen die Geräte Bezeichnung, den Web oder ähnliche Technologien zu benutzen. Deine Settings, können in deinem Gerät bei deinem Browser geändert werden.

Für den bestimmten Zweck, berechtigten Interessen beruhen darauf, mehr als auf den Inhalt. Du kannst mehr darüber in unseren Privaten und Cookie Politik lesen.